Oulu Airport

Airport
ICAO code: 
EFOU
Summary
ICAO Region: 
EUR
Territory: 
Location: 
Oulu, Finland,
Elevation: 
302 ft
Coordinates: 
Aerial View: 
64° 55' 48.216" N, 25° 21' 16.416" E
Airport GND: 
Aircraft Ground De/Anti Icing
Airport RE: 
Landing on Contaminated Runways
Metar
Observation
EFOU 251250Z AUTO 16011KT 130V190 CAVOK 23/01 Q1009
Station
Oulu
Date/Time
2022-05-25 12:50:00
Wind direction
160°
Wind speed
11 kts
Lowest cloud amount
clouds and visibility OK
Temperature
23°C
Dew point
1°C
Humidity
23%
QNH
1009 hPa
Weather condition
n/a

Description

Oulu Airport is located 5.7 nm southwest of the city of Oulu, in central Finland. The airfield is also used for training by the Finnish air force.

Climatology

Subarctic climate (Köppen climate classification Dfc) - long, usually very cold winters, and short, cool to mild summers.

Runways

Designator Length Width Surface Rops
12/30 2501 60 ASP Yes/Yes
Airport map: 
Aerial View: 

SKYbrary Partners:

Safety knowledge contributed by: